Date String (YYYY-MM-DD hh:mm:ss) UTC,Instrument flags,absolute air pressure of the measurement (hPa),sample flow rate (lpm),inlet stack bypass flow (lpm),air temperature of the measurement (°C),ambient temperature measured by the external sensor (°C),aerosol sample conditioner tube jacket temperature (°C),OPC LED temperature (°C),internal box temperature (°C),relative humidity of the measurement (%),span deviation,mass concentration of particles derived from Lorenz-Mie calculation of OPC scattering (μg/m³),mass concentration of particles derived from Lorenz-Mie calculation of OPC scattering (μg/m³),mass concentration of particles derived from Lorenz-Mie calculation of OPC scattering (μg/m³)
DateTimeUTC,F1_M11,P_M11,Q1_M11,Q2_M11,T1_M11,T2_M11,T3_M11,T4_M11,T5_M11,U1_M11,ZSPAN_M11,X0_M11,X2_M11,X1_M11
2023-08-16 17:00:00,SystemResetWarning,0833.4,4.99,000.00,028.7,026.5,000.0,036.8,030.3,24.1,0000.0,0008.61,0004.02,0003.71
2023-08-16 17:01:00,SystemResetWarning,0833.4,5.01,000.00,028.6,025.3,000.0,036.7,030.0,24.6,0000.0,0008.64,0004.03,0003.72
2023-08-16 17:02:00,SystemResetWarning,0833.3,5.00,000.00,028.6,025.4,000.0,036.7,030.0,24.6,0000.0,0008.76,0004.05,0003.72
2023-08-16 17:03:00,SystemResetWarning,0833.3,5.01,000.00,028.6,025.7,000.0,036.7,030.0,23.5,0000.0,0008.90,0004.06,0003.71
2023-08-16 17:04:00,SystemResetWarning,0833.4,4.99,000.00,028.6,026.1,000.0,036.8,030.1,23.4,0000.0,0008.71,0004.06,0003.71
2023-08-16 17:05:00,SystemResetWarning,0833.3,5.00,000.00,028.6,026.5,000.0,036.8,030.2,23.3,0000.0,0008.10,0004.06,0003.70
2023-08-16 17:06:00,SystemResetWarning,0833.4,5.01,000.00,028.6,026.9,000.0,036.9,030.3,23.2,0000.0,0007.93,0004.09,0003.70
2023-08-16 17:07:00,SystemResetWarning,0833.4,4.98,000.00,028.7,026.9,000.0,036.8,030.3,23.2,0000.0,0008.00,0004.11,0003.69
2023-08-16 17:08:00,SystemResetWarning,0833.3,5.00,000.00,028.6,025.7,000.0,036.8,030.0,23.9,0000.0,0007.79,0004.09,0003.69
2023-08-16 17:09:00,SystemResetWarning,0833.3,5.02,000.00,028.6,025.1,000.0,036.7,029.9,24.4,0000.0,0007.15,0004.07,0003.69
2023-08-16 17:10:00,SystemResetWarning,0833.3,5.00,000.00,028.6,025.5,000.0,036.7,030.0,24.2,0000.0,0007.61,0004.09,0003.69
2023-08-16 17:11:00,SystemResetWarning,0833.3,4.99,000.00,028.5,025.9,000.0,036.8,030.0,24.1,0000.0,0007.78,0004.11,0003.70
2023-08-16 17:12:00,SystemResetWarning,0833.3,5.00,000.00,028.6,026.3,000.0,036.8,030.2,23.7,0000.0,0007.99,0004.14,0003.69
2023-08-16 17:13:00,SystemResetWarning,0833.3,5.00,000.00,028.6,026.7,000.0,036.8,030.3,23.4,0000.0,0008.39,0004.13,0003.68
2023-08-16 17:14:00,SystemResetWarning,0833.3,5.00,000.00,028.7,027.0,000.0,036.9,030.4,23.6,0000.0,0008.40,0004.12,0003.68
2023-08-16 17:15:00,SystemResetWarning,0833.3,4.98,000.00,028.7,026.4,000.0,036.8,030.2,23.7,0000.0,0008.39,0004.10,0003.68
2023-08-16 17:16:00,SystemResetWarning,0833.2,5.00,000.00,028.6,025.2,000.0,036.7,029.9,23.4,0000.0,0008.61,0004.12,0003.69
2023-08-16 17:17:00,SystemResetWarning,0833.2,5.02,000.00,028.6,025.3,000.0,036.7,030.0,23.1,0000.0,0008.63,0004.12,0003.69
2023-08-16 17:18:00,SystemResetWarning,0833.2,4.98,000.00,028.5,025.7,000.0,036.7,030.0,23.6,0000.0,0008.64,0004.12,0003.69
2023-08-16 17:19:00,SystemResetWarning,0833.2,5.00,000.00,028.5,026.1,000.0,036.8,030.1,23.5,0000.0,0008.66,0004.12,0003.68
2023-08-16 17:20:00,SystemResetWarning,0833.2,5.01,000.00,028.6,026.5,000.0,036.8,030.2,23.4,0000.0,0008.53,0004.11,0003.67
2023-08-16 17:21:00,SystemResetWarning,0833.2,5.01,000.00,028.6,026.9,000.0,036.8,030.3,24.1,0000.0,0008.16,0004.11,0003.68
2023-08-16 17:22:00,SystemResetWarning,0833.2,4.99,000.00,028.7,026.9,000.0,036.8,030.3,24.4,0000.0,0008.10,0004.12,0003.68
2023-08-16 17:23:00,SystemResetWarning,0833.2,4.99,000.00,028.6,025.6,000.0,036.7,030.0,24.0,0000.0,0008.02,0004.10,0003.69
2023-08-16 17:24:00,SystemResetWarning,0833.2,5.01,000.00,028.6,025.2,000.0,036.7,029.9,24.1,0000.0,0007.52,0004.11,0003.70
2023-08-16 17:25:00,SystemResetWarning,0833.1,5.01,000.00,028.5,025.6,000.0,036.7,030.0,23.7,0000.0,0007.45,0004.11,0003.70
2023-08-16 17:26:00,SystemResetWarning,0833.1,4.99,000.00,028.5,026.0,000.0,036.7,030.0,23.2,0000.0,0007.29,0004.11,0003.71
2023-08-16 17:27:00,SystemResetWarning,0833.2,5.00,000.00,028.6,026.4,000.0,036.8,030.1,24.3,0000.0,0007.20,0004.10,0003.69
2023-08-16 17:28:00,SystemResetWarning,0833.2,5.00,000.00,028.6,026.8,000.0,036.8,030.3,24.5,0000.0,0007.14,0004.09,0003.69
2023-08-16 17:29:00,SystemResetWarning,0833.1,5.01,000.00,028.7,027.1,000.0,036.8,030.4,23.6,0000.0,0007.23,0004.07,0003.69
2023-08-16 17:30:00,SystemResetWarning,0833.2,4.98,000.00,028.7,026.3,000.0,036.8,030.1,23.2,0000.0,0007.28,0004.07,0003.70
2023-08-16 17:31:00,SystemResetWarning,0833.0,5.00,000.00,028.6,025.3,000.0,036.7,029.9,23.6,0000.0,0007.57,0004.10,0003.71
2023-08-16 17:32:00,SystemResetWarning,0833.1,5.02,000.00,028.6,025.5,000.0,036.7,030.0,23.4,0000.0,0008.42,0004.11,0003.71
2023-08-16 17:33:00,SystemResetWarning,0833.4,5.00,000.00,028.5,025.9,000.0,036.7,030.0,23.5,0000.0,0008.37,0004.11,0003.71
2023-08-16 17:34:00,SystemResetWarning,0833.3,5.00,000.00,028.6,026.2,000.0,036.8,030.1,23.5,0000.0,0008.31,0004.11,0003.71
2023-08-16 17:35:00,SystemResetWarning,0833.1,5.01,000.00,028.6,026.6,000.0,036.8,030.2,24.0,0000.0,0008.29,0004.10,0003.70
2023-08-16 17:36:00,SystemResetWarning,0833.0,4.99,000.00,028.6,026.9,000.0,036.8,030.3,23.7,0000.0,0008.32,0004.14,0003.71
2023-08-16 17:37:00,SystemResetWarning,0833.4,4.99,000.00,028.6,026.1,000.0,036.8,030.1,24.0,0000.0,0008.36,0004.14,0003.71
2023-08-16 17:38:00,SystemResetWarning,0833.0,5.01,000.00,028.6,025.1,000.0,036.7,029.9,24.5,0000.0,0008.22,0004.15,0003.73
2023-08-16 17:39:00,SystemResetWarning,0833.0,5.01,000.00,028.6,025.4,000.0,036.7,030.0,24.2,0000.0,0008.08,0004.12,0003.73
2023-08-16 17:40:00,SystemResetWarning,0833.1,4.99,000.00,028.5,025.8,000.0,036.7,030.0,23.7,0000.0,0008.84,0004.14,0003.74
2023-08-16 17:41:00,SystemResetWarning,0833.1,4.99,000.00,028.5,026.2,000.0,036.8,030.1,23.5,0000.0,0008.93,0004.14,0003.73
2023-08-16 17:42:00,SystemResetWarning,0833.2,5.01,000.00,028.6,026.6,000.0,036.8,030.2,23.7,0000.0,0008.92,0004.13,0003.73
2023-08-16 17:43:00,SystemResetWarning,0833.1,5.01,000.00,028.6,027.0,000.0,036.8,030.3,23.2,0000.0,0008.72,0004.12,0003.73
2023-08-16 17:44:00,SystemResetWarning,0833.4,5.00,000.00,028.7,026.8,000.0,036.8,030.3,23.0,0000.0,0008.68,0004.09,0003.72
2023-08-16 17:45:00,SystemResetWarning,0833.4,4.98,000.00,028.6,025.5,000.0,036.7,030.0,23.6,0000.0,0008.77,0004.13,0003.73
2023-08-16 17:46:00,SystemResetWarning,0833.3,5.02,000.00,028.6,025.2,000.0,036.7,030.0,23.5,0000.0,0008.79,0004.14,0003.74
2023-08-16 17:47:00,SystemResetWarning,0833.1,5.00,000.00,028.6,025.6,000.0,036.7,030.0,23.1,0000.0,0008.78,0004.12,0003.74
2023-08-16 17:48:00,SystemResetWarning,0833.0,4.99,000.00,028.5,025.9,000.0,036.7,030.1,22.7,0000.0,0008.73,0004.13,0003.74
2023-08-16 17:49:00,SystemResetWarning,0833.0,5.00,000.00,028.6,026.4,000.0,036.8,030.2,22.8,0000.0,0009.26,0004.14,0003.73
2023-08-16 17:50:00,SystemResetWarning,0833.1,5.01,000.00,028.6,026.8,000.0,036.8,030.3,22.8,0000.0,0009.46,0004.19,0003.74
2023-08-16 17:51:00,SystemResetWarning,0833.1,5.00,000.00,028.7,027.0,000.0,036.8,030.3,23.1,0000.0,0009.31,0004.19,0003.73
2023-08-16 17:52:00,SystemResetWarning,0833.1,4.98,000.00,028.6,025.9,000.0,036.8,030.1,23.3,0000.0,0009.37,0004.19,0003.74
2023-08-16 17:53:00,SystemResetWarning,0833.0,5.00,000.00,028.6,024.9,000.0,036.7,029.9,23.6,0000.0,0009.17,0004.16,0003.74
2023-08-16 17:54:00,SystemResetWarning,0833.0,5.02,000.00,028.5,025.2,000.0,036.6,029.9,23.4,0000.0,0008.42,0004.15,0003.75
2023-08-16 17:55:00,SystemResetWarning,0832.9,4.99,000.00,028.5,025.5,000.0,036.7,029.9,23.5,0000.0,0008.51,0004.18,0003.75
2023-08-16 17:56:00,SystemResetWarning,0832.9,4.99,000.00,028.5,026.0,000.0,036.7,030.0,23.4,0000.0,0008.42,0004.14,0003.75
2023-08-16 17:57:00,SystemResetWarning,0832.9,5.00,000.00,028.5,026.4,000.0,036.8,030.1,23.2,0000.0,0008.45,0004.16,0003.75
2023-08-16 17:58:00,SystemResetWarning,0833.1,5.01,000.00,028.6,026.8,000.0,036.8,030.3,23.2,0000.0,0008.44,0004.14,0003.75
2023-08-16 17:59:00,SystemResetWarning,0833.4,5.01,000.00,028.6,027.0,000.0,036.8,030.3,23.1,0000.0,0008.44,0004.14,0003.76
